| time (UTC) | temp C | wind direction | speed KPH | gust KPH | rain 1hr cm | rain 24hr cm | rain mn cm | humidity % | barometer mb |
| 20260503210032 | 24 | 69 | 3.2 | 12.9 | 0.00 | 0.00 | 0.00 | 51 | 1012.3 |
| 20260503204538 | 23 | 0 | 3.2 | 16.1 | 0.00 | 0.00 | 0.00 | 51 | 1012.6 |
| 20260503203036 | 23 | 303 | 3.2 | 9.7 | 0.00 | 0.00 | 0.00 | 53 | 1012.8 |
| 20260503201534 | 23 | 339 | 4.8 | 14.5 | 0.00 | 0.00 | 0.00 | 51 | 1012.9 |
| 20260503200034 | 23 | 333 | 3.2 | 9.7 | 0.00 | 0.00 | 0.00 | 53 | 1013.1 |
| 20260503194533 | 23 | 300 | 1.6 | 9.7 | 0.00 | 0.00 | 0.00 | 56 | 1013.2 |
| 20260503193042 | 23 | 0 | 1.6 | 6.4 | 0.00 | 0.00 | 0.00 | 54 | 1013.4 |
| 20260503191537 | 23 | 284 | 3.2 | 12.9 | 0.00 | 0.00 | 0.00 | 52 | 1013.5 |
| 20260503190037 | 22 | 302 | 1.6 | 9.7 | 0.00 | 0.00 | 0.00 | 56 | 1013.6 |
| 20260503184535 | 23 | 264 | 1.6 | 12.9 | 0.00 | 0.00 | 0.00 | 53 | 1013.7 |
| 20260503183037 | 22 | 5 | 1.6 | 8.0 | 0.00 | 0.00 | 0.00 | 57 | 1013.8 |
| 20260503181612 | 21 | 202 | 1.6 | 9.7 | 0.00 | 0.00 | 0.00 | 57 | 1014.0 |
| 20260503180040 | 21 | 170 | 1.6 | 6.4 | 0.00 | 0.00 | 0.00 | 60 | 1014.1 |
| 20260503174537 | 20 | 317 | 1.6 | 6.4 | 0.00 | 0.00 | 0.00 | 59 | 1014.3 |
| 20260503173044 | 20 | 265 | 1.6 | 8.0 | 0.00 | 0.00 | 0.00 | 60 | 1014.3 |
| 20260503171536 | 20 | 333 | 3.2 | 8.0 | 0.00 | 0.00 | 0.00 | 59 | 1014.3 |
| 20260503081538 | 13 | 0 | 0.0 | 0.0 | 0.00 | 0.00 | 0.00 | 71 | 1014.8 |
| 20260503071538 | 15 | 0 | 0.0 | 0.0 | 0.00 | 0.00 | 0.00 | 64 | 1014.8 |
| 20260503054536 | 17 | 0 | 0.0 | 6.4 | 0.00 | 0.00 | 0.00 | 58 | 1014.6 |
| 20260503053040 | 17 | 227 | 0.0 | 1.6 | 0.00 | 0.00 | 0.00 | 59 | 1014.6 |
| 20260503051542 | 17 | 0 | 0.0 | 3.2 | 0.00 | 0.00 | 0.00 | 60 | 1014.6 |
| 20260503050036 | 16 | 0 | 0.0 | 4.8 | 0.00 | 0.00 | 0.00 | 63 | 1014.6 |
| 20260503044603 | 16 | 0 | 0.0 | 4.8 | 0.00 | 0.00 | 0.00 | 65 | 1014.5 |
| 20260503043037 | 16 | 0 | 0.0 | 1.6 | 0.00 | 0.00 | 0.00 | 67 | 1014.2 |
| 20260503041536 | 16 | 0 | 0.0 | 1.6 | 0.00 | 0.00 | 0.00 | 67 | 1014.0 |
| 20260503040037 | 16 | 0 | 0.0 | 1.6 | 0.00 | 0.00 | 0.00 | 66 | 1013.9 |
| 20260503034533 | 17 | 0 | 0.0 | 1.6 | 0.00 | 0.00 | 0.00 | 65 | 1013.7 |
| 20260503033037 | 17 | 0 | 0.0 | 3.2 | 0.00 | 0.00 | 0.00 | 63 | 1013.5 |
| 20260503031539 | 18 | 0 | 0.0 | 4.8 | 0.00 | 0.00 | 0.00 | 62 | 1013.4 |
| 20260503030041 | 19 | 0 | 0.0 | 4.8 | 0.00 | 0.00 | 0.00 | 59 | 1013.2 |
| 20260503024536 | 20 | 0 | 0.0 | 3.2 | 0.00 | 0.00 | 0.00 | 56 | 1013.1 |
| 20260503023042 | 20 | 9 | 0.0 | 8.0 | 0.00 | 0.00 | 0.00 | 54 | 1013.0 |
| 20260503021536 | 21 | 0 | 0.0 | 11.3 | 0.00 | 0.00 | 0.00 | 54 | 1013.0 |
| 20260503020038 | 21 | 286 | 1.6 | 9.7 | 0.00 | 0.00 | 0.00 | 51 | 1013.0 |
| 20260503014543 | 22 | 288 | 1.6 | 6.4 | 0.00 | 0.00 | 0.00 | 50 | 1013.2 |
| 20260503013036 | 22 | 71 | 1.6 | 6.4 | 0.00 | 0.00 | 0.00 | 50 | 1013.1 |
| 20260503011534 | 22 | 284 | 3.2 | 16.1 | 0.00 | 0.00 | 0.00 | 53 | 1013.1 |
| 20260503010034 | 22 | 263 | 3.2 | 12.9 | 0.00 | 0.00 | 0.00 | 51 | 1013.2 |
| 20260503004537 | 22 | 313 | 3.2 | 12.9 | 0.00 | 0.00 | 0.00 | 51 | 1013.3 |
| 20260503003045 | 22 | 294 | 4.8 | 17.7 | 0.00 | 0.00 | 0.00 | 51 | 1013.4 |
| 20260503001544 | 22 | 291 | 4.8 | 12.9 | 0.00 | 0.00 | 0.00 | 49 | 1013.5 |
| 20260503000045 | 22 | 252 | 1.6 | 12.9 | 0.00 | 0.00 | 0.00 | 49 | 1013.6 |
| 20260502234550 | 22 | 347 | 3.2 | 14.5 | 0.00 | 0.00 | 0.00 | 51 | 1013.7 |
| 20260502233036 | 22 | 254 | 3.2 | 19.3 | 0.00 | 0.00 | 0.00 | 53 | 1013.9 |
| 20260502231536 | 22 | 9 | 4.8 | 16.1 | 0.00 | 0.00 | 0.00 | 56 | 1014.2 |
| 20260502230035 | 21 | 360 | 4.8 | 19.3 | 0.00 | 0.00 | 0.00 | 55 | 1014.6 |
| 20260502224535 | 21 | 12 | 3.2 | 17.7 | 0.00 | 0.00 | 0.00 | 56 | 1014.6 |
| 20260502223038 | 21 | 99 | 1.6 | 17.7 | 0.00 | 0.00 | 0.00 | 58 | 1014.8 |
| 20260502221536 | 21 | 331 | 3.2 | 14.5 | 0.00 | 0.00 | 0.00 | 57 | 1014.9 |
| 20260502220039 | 21 | 287 | 3.2 | 17.7 | 0.00 | 0.00 | 0.00 | 58 | 1015.0 |
| 20260502214545 | 21 | 236 | 4.8 | 17.7 | 0.00 | 0.00 | 0.00 | 60 | 1015.2 |
| 20260502213039 | 20 | 0 | 3.2 | 20.9 | 0.00 | 0.00 | 0.00 | 60 | 1015.3 |
| 20260502211535 | 21 | 5 | 4.8 | 14.5 | 0.00 | 0.00 | 0.00 | 58 | 1015.5 |